ORBCOMM FM15 [+]

Last updated on July 6, 2021, 3:36 p.m. UTC

1 25418U 98046F   21186.95475453  .00000045  00000-0  66801-4 0  9991
2 25418  44.9979 143.2461 0005434 295.0731 111.6057 14.33191194197080
UTC
Height (km)
Latitude
Longitude
Inclination
Orbital Period
UTC large
Height (km)
Speed (km/s)
/
Latitude / Longitude
Inclination (degrees)
Orbital Period (minutes)
Azimuth
Elevation
Range (km)
Doppler Factor
iOS Compass Heading
iOS Angle